TimeEDT,TemperatureF,Dew PointF,Humidity,Sea Level PressureIn,VisibilityMPH,Wind Direction,Wind SpeedMPH,Gust SpeedMPH,PrecipitationIn,Events,Conditions,WindDirDegrees,DateUTC
12:13 AM,69.8,69.8,100,30.00,6.0,South,4.6,-,N/A,,Overcast,190,2013-06-18 04:13:00
12:18 AM,69.8,69.8,100,29.99,4.0,Variable,1.2,-,N/A,,Overcast,0,2013-06-18 04:18:00
12:41 AM,69.8,69.8,100,29.99,8.0,South,6.9,-,N/A,,Overcast,180,2013-06-18 04:41:00
12:58 AM,70.2,70.2,100,29.96,9.0,South,5.8,-,0.01,,Overcast,180,2013-06-18 04:58:00
1:03 AM,69.8,69.8,100,29.98,10.0,South,4.6,-,N/A,,Mostly Cloudy,180,2013-06-18 05:03:00
1:08 AM,69.8,69.8,100,29.97,10.0,South,5.8,-,N/A,,Mostly Cloudy,180,2013-06-18 05:08:00
1:13 AM,69.8,69.8,100,29.98,10.0,South,6.9,-,N/A,,Mostly Cloudy,180,2013-06-18 05:13:00
1:58 AM,69.1,69.1,100,29.95,10.0,South,4.6,-,N/A,,Mostly Cloudy,180,2013-06-18 05:58:00
2:58 AM,68.7,68.5,99,29.94,10.0,South,3.5,-,N/A,,Mostly Cloudy,190,2013-06-18 06:58:00
3:58 AM,68.5,68.2,99,29.93,10.0,SSW,2.3,-,N/A,,Mostly Cloudy,200,2013-06-18 07:58:00
4:58 AM,68.2,67.8,99,29.92,10.0,South,2.3,-,N/A,,Clear,190,2013-06-18 08:58:00
5:56 AM,68.0,68.0,100,29.95,10.0,SSW,3.5,-,N/A,,Partly Cloudy,200,2013-06-18 09:56:00
5:58 AM,68.4,68.0,99,29.93,10.0,SSW,3.5,-,N/A,,Partly Cloudy,200,2013-06-18 09:58:00
6:13 AM,68.0,68.0,100,29.95,10.0,SSW,5.8,-,N/A,,Mostly Cloudy,200,2013-06-18 10:13:00
6:37 AM,69.8,68.0,94,29.95,10.0,South,5.8,-,N/A,,Overcast,190,2013-06-18 10:37:00
6:58 AM,69.4,68.5,97,29.93,10.0,SSW,6.9,-,N/A,,Overcast,200,2013-06-18 10:58:00
7:03 AM,69.8,68.0,94,29.95,7.0,South,4.6,-,N/A,Rain,Light Rain,190,2013-06-18 11:03:00
7:28 AM,69.8,69.8,100,29.96,7.0,Variable,3.5,-,N/A,,Light Drizzle,0,2013-06-18 11:28:00
7:42 AM,69.8,69.8,100,29.97,7.0,SW,5.8,-,N/A,,Light Drizzle,220,2013-06-18 11:42:00
7:57 AM,69.8,69.8,100,29.97,3.0,SW,8.1,-,N/A,Rain,Rain,220,2013-06-18 11:57:00
7:58 AM,70.5,70.2,99,29.95,3.0,SSW,6.9,-,0.00,Rain,Rain,210,2013-06-18 11:58:00
8:04 AM,69.8,69.8,100,29.97,2.0,SSW,5.8,-,N/A,Rain,Rain,210,2013-06-18 12:04:00
8:19 AM,69.8,69.8,100,30.00,3.0,West,8.1,-,N/A,Rain,Light Rain,260,2013-06-18 12:19:00
8:38 AM,69.8,69.8,100,30.00,2.0,WNW,11.5,21.9,N/A,Rain,Light Rain,290,2013-06-18 12:38:00
8:51 AM,69.8,69.8,100,30.00,3.0,West,13.8,-,N/A,Rain,Light Rain,280,2013-06-18 12:51:00
8:58 AM,69.6,68.7,97,29.99,3.0,WNW,13.8,-,0.10,Rain,Light Rain,290,2013-06-18 12:58:00
9:08 AM,69.8,68.0,94,30.00,4.0,WNW,9.2,-,N/A,,Overcast,290,2013-06-18 13:08:00
9:58 AM,72.3,70.3,93,29.95,10.0,SSW,6.9,-,0.05,,Mostly Cloudy,210,2013-06-18 13:58:00
10:43 AM,75.2,71.6,89,29.97,10.0,SSW,8.1,-,N/A,,Mostly Cloudy,210,2013-06-18 14:43:00
10:58 AM,76.5,72.1,86,29.94,10.0,WSW,8.1,-,N/A,,Mostly Cloudy,240,2013-06-18 14:58:00
11:43 AM,78.8,73.4,83,29.96,10.0,South,10.4,-,N/A,,Mostly Cloudy,180,2013-06-18 15:43:00
11:58 AM,78.8,73.2,83,29.94,10.0,South,12.7,19.6,N/A,,Mostly Cloudy,190,2013-06-18 15:58:00
12:08 PM,78.8,73.4,83,29.95,10.0,SSW,11.5,18.4,N/A,,Mostly Cloudy,210,2013-06-18 16:08:00
12:17 PM,78.8,73.4,83,29.94,10.0,SSW,11.5,19.6,N/A,Rain,Light Rain Showers,200,2013-06-18 16:17:00
12:20 PM,78.8,73.4,83,29.94,3.0,SSW,12.7,19.6,N/A,Rain,Rain,210,2013-06-18 16:20:00
12:35 PM,75.2,73.4,94,29.94,7.0,SW,4.6,-,N/A,,Mostly Cloudy,230,2013-06-18 16:35:00
12:58 PM,79.5,75.9,89,29.91,10.0,WSW,9.2,-,0.13,,Mostly Cloudy,250,2013-06-18 16:58:00
1:18 PM,78.8,73.4,83,29.94,10.0,West,12.7,-,N/A,,Mostly Cloudy,270,2013-06-18 17:18:00
1:58 PM,82.2,73.6,75,29.90,7.0,SW,13.8,-,0.01,,Mostly Cloudy,230,2013-06-18 17:58:00
2:05 PM,82.4,73.4,74,29.92,7.0,SW,11.5,-,N/A,Rain,Light Rain Showers,220,2013-06-18 18:05:00
2:23 PM,77.0,73.4,89,29.92,7.0,WSW,11.5,19.6,N/A,,Mostly Cloudy,250,2013-06-18 18:23:00
2:58 PM,79.2,74.5,86,29.89,10.0,West,12.7,18.4,0.05,,Mostly Cloudy,260,2013-06-18 18:58:00
3:58 PM,83.5,71.8,68,29.86,10.0,West,16.1,-,N/A,,Mostly Cloudy,260,2013-06-18 19:58:00
4:31 PM,82.4,71.6,70,29.89,10.0,West,10.4,-,N/A,Thunderstorm,Thunderstorm,260,2013-06-18 20:31:00
4:47 PM,77.0,71.6,83,29.92,2.0,WNW,13.8,-,N/A,Rain-Thunderstorm,Thunderstorms and Rain,300,2013-06-18 20:47:00
4:49 PM,75.2,71.6,89,29.92,1.5,WNW,18.4,26.5,N/A,Rain-Thunderstorm,Thunderstorms and Rain,290,2013-06-18 20:49:00
4:51 PM,75.2,71.6,89,29.92,0.8,WNW,20.7,27.6,N/A,Rain-Thunderstorm,Thunderstorms and Rain,290,2013-06-18 20:51:00
4:52 PM,75.2,71.6,89,29.93,0.5,WNW,19.6,27.6,N/A,Rain-Thunderstorm,Thunderstorms and Rain,300,2013-06-18 20:52:00
4:55 PM,73.6,71.4,93,29.91,0.5,WNW,16.1,27.6,0.22,Rain-Thunderstorm,Heavy Thunderstorms and Rain,300,2013-06-18 20:55:00
4:59 PM,71.6,71.6,100,29.92,0.8,WNW,9.2,27.6,N/A,Rain-Thunderstorm,Thunderstorms and Rain,300,2013-06-18 20:59:00
5:01 PM,71.6,69.8,94,29.92,1.5,WNW,9.2,27.6,N/A,Rain-Thunderstorm,Thunderstorms and Rain,300,2013-06-18 21:01:00
5:03 PM,71.6,69.8,94,29.92,3.0,WNW,8.1,23.0,N/A,Rain-Thunderstorm,Thunderstorms and Rain,300,2013-06-18 21:03:00
5:07 PM,71.6,69.8,94,29.92,7.0,West,6.9,-,N/A,Rain-Thunderstorm,Light Thunderstorms and Rain,280,2013-06-18 21:07:00
5:19 PM,73.4,71.6,94,29.91,7.0,SW,3.5,-,N/A,,Overcast,220,2013-06-18 21:19:00
5:58 PM,75.0,72.3,91,29.87,10.0,SW,3.5,-,0.18,,Overcast,220,2013-06-18 21:58:00
6:42 PM,77.0,73.4,89,29.89,10.0,WSW,5.8,-,N/A,,Mostly Cloudy,240,2013-06-18 22:42:00
6:58 PM,76.3,72.7,89,29.87,10.0,WSW,5.8,-,N/A,,Mostly Cloudy,240,2013-06-18 22:58:00
7:58 PM,75.4,72.0,89,29.88,10.0,SSW,2.3,-,N/A,,Mostly Cloudy,200,2013-06-18 23:58:00
8:46 PM,75.2,71.6,89,29.92,10.0,WSW,5.8,-,N/A,,Mostly Cloudy,250,2013-06-19 00:46:00
8:58 PM,74.3,71.2,90,29.90,10.0,SW,4.6,-,N/A,,Mostly Cloudy,230,2013-06-19 00:58:00
9:58 PM,73.2,71.4,94,29.92,10.0,WSW,6.9,-,N/A,,Mostly Cloudy,240,2013-06-19 01:58:00
10:58 PM,72.5,71.1,95,29.92,10.0,WSW,4.6,-,N/A,,Mostly Cloudy,240,2013-06-19 02:58:00
11:58 PM,71.8,71.2,98,29.92,10.0,West,8.1,-,N/A,,Clear,270,2013-06-19 03:58:00